Location: Abraham Lincoln Continuation High School
(33.9711°N, 117.3662°W)
Time: 14:03:46
(UTC+00:00)

Cosmos 1025 Rocket - Pass Details

Date: 21 September 2020
Orbit: 595 x 617 km, 82.5° (Epoch: 28 October)

Event Time Altitude Azimuth Distance (km) Brightness Sun altitude
Rises 03:20:11 0° 353° (N) 2,886 6.8 -19.7°
Reaches altitude 10° 03:22:25 10° 354° (N) 1,979 5.9 -20.2°
Maximum altitude 03:26:48 87° 80° (E) 622 2.9 -21.0°
Enters shadow 03:28:45 33° 172° (S) 1,037 4.0 -21.4°
